Location: Alafon
(8.4500°N, 4.2333°E)
Time: 02:37:44
(UTC+00:00)

Vanguard 2 - Pass Details

Date: 03 August 2021
Orbit: 553 x 2937 km, 32.9° (Epoch: 27 September)

Event Time Altitude Azimuth Distance (km) Brightness Sun altitude
Rises 00:29:29 0° 238° (WSW) 4,140 - -62.2°
Reaches altitude 10° 00:32:54 10° 240° (WSW) 2,818 - -61.9°
Maximum altitude 00:39:13 77° 325° (NW) 753 - -61.3°
Drops below altitude 10° 00:43:31 10° 52° (NE) 1,943 - -60.8°
Sets 00:45:30 0° 54° (NE) 2,759 - -60.6°
